STARLINK-32156, 60278

Orbit data source: Space-Track

STARLINK-32156, 60278 is a payload satellite owned by SpaceX/Seattle (US) in LEO that was launched on Sun, 28 Jul 2024 UTC via an FALCON 9 launch vehicle from the Air Force Eastern Test Range (AFETR). Payload-class satellites include a variety of spacecraft equipped with specific instruments for various scientific and technological missions. These include communications satellites like Starlink; space stations such as the ISS; scientific satellites like the Hubble; Earth observation satellites from companies like Planet Labs, Umbra, and HawkEye 360; GPS; miniature CubeSats for education and research; and military/defense satellites.

Loading next visibility...
Identifier
60278, 2024-132A
Orbit
LEO
Last TLE update
16 hours ago
Origin
Manufacturer
SpaceX/Seattle
Mission
Operational spacecraft
Bus & Motor
STARLINK V2M, Unknown motor
Mass
730 kg wet, ~700 kg dry
Launch date (UTC)
2024-07-28 (11 months ago)
Launch vehicle
FALCON 9
Launch site
Air Force Eastern Test Range (AFETR)
Object type
Payload
Rocket body
Debris
Shape & HBR
Unknown
Radar Cross Section
Large (>1 m²)

Expand to show TLE details & history

TLE from 16 hours ago
0 STARLINK-32156
1 60278U 24132A   25191.45030101  .00001227  00000-0  53561-4 0  9993
2 60278  53.1587  97.5268 0001152  93.8806 266.2327 15.30198666 55692
Epoch: 2025-07-10T10:48Z
TLE epoch observation values (Epoch: 2025-07-10T10:48:26.007Z)
Latitude
0.00003°
Longitude
6.80205°
Altitude
476.171 km
Speed
7.629 km/s
True Right ascension
06h 30m 06s
True Declination
0° 00' 00"
Sunlit
Object was in daylight at epoch
Visualization orbit readout
Latitude
50.70276°
Longitude
69.26479°
Altitude
480.458 km
Speed
7.632 km/s
Apparent Right ascension
06h 31m 50s
Apparent Declination
13° 26' 29"
Sunlit
Object is in daylight
Visualization observer readout
Local Sidereal Time
15:05:05
Azimuth
306.525° NW
Elevation
-18.26°
Doppler factor
1
Orbital elements
Apogee altitude
476.265 km
Perigee altitude
474.686 km
Semi-major axis
6,853.613 km
Eccentricity
0.00012
Inclination
53.1587°
RAAN
97.5268°
Arg. of periapsis
93.8806°
True anomaly
Unknown
Mean anomaly
266.2327°
Eccentric anomaly
Unknown
Mean motion
3.82529 °/min
Orbital period
94.11 mins
BSTAR
0.000053561
Loading maneuver chart data...
Loading SW <> Apogee altitude chart data...
Loading historical data...
Loading historical data...
Loading historical data...
Loading historical data...
Loading historical data...
Loading historical data...
Loading historical data...

STARLINK-32156 Visibility forecast

Observer location: undefined°, undefined°

Span
Click to sort rows by Start time (UTC) header in descending order
Start Az.
Max El. time (UTC)
Max El. Az.
Max El.
End time (UTC)
End Az.
6 mins2025-07-11 02:58:28.081Z322.36° NNW2025-07-11 03:01:28.081Z63.722° ENE37.544°2025-07-11 03:04:28.081Z114.117° SE
5 mins2025-07-11 19:54:28.081Z204.907° SW2025-07-11 19:56:28.081Z142.385° SSE38.654°2025-07-11 19:59:28.081Z61.107° ENE
4 mins2025-07-11 21:33:28.081Z303.523° NW2025-07-11 21:34:28.081Z327.83° NNW21.909°2025-07-11 21:37:28.081Z26.814° NE
5 mins2025-07-12 02:29:28.081Z330.046° NNW2025-07-12 02:31:28.081Z30.331° NE35.878°2025-07-12 02:34:28.081Z106.788° ESE
|